Location: Unspecified
(0.0000°N, 0.0000°E)
Time: 13:34:06
(UTC+00:00)

FALCON 9 R/B - Pass Details

Date: 04 November 2020
Orbit: 485 x 62261 km, 25.4° (Epoch: 27 November)

Event Time Altitude Azimuth Distance (km) Brightness Sun altitude
Rises 03:02:13 0° 78° (ENE) 50,877 ? -38.6°
Reaches altitude 10° 04:22:54 10° 81° (E) 39,665 ? -19.4°
Maximum altitude 05:11:04 13° 85° (E) 31,545 ? -7.8°
Drops below altitude 10° 05:46:17 10° 89° (E) 24,844 ? 0.6°
Sets 06:16:22 0° 95° (E) 18,789 ? 7.9°
